Year,Month,Day,Hour,Minute,Value (Times are PST for temperature in C)
2009,07,25,11,58,22.20
2009,07,25,11,59,22.20
2009,07,25,12,00,22.20
2009,07,25,12,01,22.20
2009,07,25,12,02,22.20
2009,07,25,12,03,22.20
2009,07,25,12,04,22.20
2009,07,25,12,05,22.10
2009,07,25,12,06,22.00
2009,07,25,12,07,22.00
2009,07,25,12,08,21.90
2009,07,25,12,09,21.90
2009,07,25,12,10,21.90
2009,07,25,12,11,21.90
2009,07,25,12,12,22.00
2009,07,25,12,13,22.10
2009,07,25,12,14,22.20
2009,07,25,12,15,22.20
2009,07,25,12,16,22.20
2009,07,25,12,17,22.30
2009,07,25,12,18,22.40
2009,07,25,12,19,22.40
2009,07,25,12,20,22.60
2009,07,25,12,21,22.60
2009,07,25,12,22,22.60
2009,07,25,12,23,22.50
2009,07,25,12,24,22.50
2009,07,25,12,25,22.50
2009,07,25,12,26,22.30
2009,07,25,12,27,22.20
2009,07,25,12,28,22.10
2009,07,25,12,29,22.10
2009,07,25,12,30,22.10
2009,07,25,12,31,22.10
2009,07,25,12,32,22.20
2009,07,25,12,33,22.40
2009,07,25,12,34,22.60
2009,07,25,12,35,22.70
2009,07,25,12,36,22.80
2009,07,25,12,37,22.90
2009,07,25,12,38,23.00
2009,07,25,12,39,22.90
2009,07,25,12,40,22.80
2009,07,25,12,41,22.80
2009,07,25,12,42,22.80
2009,07,25,12,43,22.70
2009,07,25,12,44,22.70
2009,07,25,12,45,22.70
2009,07,25,12,46,22.70
2009,07,25,12,47,22.60
2009,07,25,12,48,22.50
2009,07,25,12,49,22.50
2009,07,25,12,50,22.60
2009,07,25,12,51,22.60
2009,07,25,12,52,22.60
2009,07,25,12,53,22.60
2009,07,25,12,54,22.60
2009,07,25,12,55,22.60
2009,07,25,12,56,22.60
2009,07,25,12,57,22.70
2009,07,25,12,58,22.60
2009,07,25,12,59,22.70
2009,07,25,13,00,22.60
2009,07,25,13,01,22.60
2009,07,25,13,02,22.60
2009,07,25,13,03,22.70
2009,07,25,13,04,22.60
2009,07,25,13,05,22.50
2009,07,25,13,06,22.50
2009,07,25,13,07,22.50
2009,07,25,13,08,22.40
2009,07,25,13,09,22.50
2009,07,25,13,10,22.50
2009,07,25,13,11,22.50
2009,07,25,13,12,22.60
2009,07,25,13,13,22.70
2009,07,25,13,14,22.80
2009,07,25,13,15,22.80
2009,07,25,13,16,22.90
2009,07,25,13,17,23.00
2009,07,25,13,18,23.00
2009,07,25,13,19,23.10
2009,07,25,13,20,23.20
2009,07,25,13,21,23.20
2009,07,25,13,22,23.20
2009,07,25,13,23,23.20
2009,07,25,13,24,23.20
2009,07,25,13,25,23.10
2009,07,25,13,26,23.10
2009,07,25,13,27,23.10
2009,07,25,13,28,23.20
2009,07,25,13,29,23.20
2009,07,25,13,30,23.20
2009,07,25,13,31,23.30
2009,07,25,13,32,23.20
2009,07,25,13,33,23.20
2009,07,25,13,34,23.20
2009,07,25,13,35,23.20
2009,07,25,13,36,23.20
2009,07,25,13,37,23.20
2009,07,25,13,38,23.20
2009,07,25,13,39,23.30
2009,07,25,13,40,23.30
2009,07,25,13,41,23.30
2009,07,25,13,42,23.30
2009,07,25,13,43,23.30
2009,07,25,13,44,23.40
2009,07,25,13,45,23.40
2009,07,25,13,46,23.40
2009,07,25,13,47,23.40
2009,07,25,13,48,23.40
2009,07,25,13,49,23.30
2009,07,25,13,50,23.20
2009,07,25,13,51,23.20
2009,07,25,13,52,23.20
2009,07,25,13,53,23.20
2009,07,25,13,54,23.10
2009,07,25,13,55,23.10
2009,07,25,13,56,23.00
2009,07,25,13,57,22.90
2009,07,25,13,58,23.00
2009,07,25,13,59,23.00
2009,07,25,14,00,23.00
2009,07,25,14,01,23.20
2009,07,25,14,02,23.40
2009,07,25,14,03,23.50
2009,07,25,14,04,23.50
2009,07,25,14,05,23.50
2009,07,25,14,06,23.60
2009,07,25,14,07,23.70
2009,07,25,14,08,23.80
2009,07,25,14,09,23.90
2009,07,25,14,10,23.90
2009,07,25,14,11,23.90
2009,07,25,14,12,24.00
2009,07,25,14,13,24.10
2009,07,25,14,14,24.20
2009,07,25,14,15,24.20
2009,07,25,14,16,24.30
2009,07,25,14,17,24.30
2009,07,25,14,18,24.40
2009,07,25,14,19,24.50
2009,07,25,14,20,24.60
2009,07,25,14,21,24.80
2009,07,25,14,22,24.90
2009,07,25,14,23,24.90
2009,07,25,14,24,24.90
2009,07,25,14,25,25.00
2009,07,25,14,26,25.00
2009,07,25,14,27,25.00
2009,07,25,14,28,25.10
2009,07,25,14,29,25.00
2009,07,25,14,30,24.90
2009,07,25,14,31,24.80
2009,07,25,14,32,24.60
2009,07,25,14,33,24.60
2009,07,25,14,34,24.50
2009,07,25,14,35,24.50
2009,07,25,14,36,24.50
2009,07,25,14,37,24.60
2009,07,25,14,38,24.60
2009,07,25,14,39,24.50
2009,07,25,14,40,24.40
2009,07,25,14,41,24.40
2009,07,25,14,42,24.40
2009,07,25,14,43,24.40
2009,07,25,14,44,24.50
2009,07,25,14,45,24.50
2009,07,25,14,46,24.50
2009,07,25,14,47,24.60
2009,07,25,14,48,24.60
2009,07,25,14,49,24.60
2009,07,25,14,50,24.60
2009,07,25,14,51,24.60
2009,07,25,14,52,24.50
2009,07,25,14,53,24.50
2009,07,25,14,54,24.50
2009,07,25,14,55,24.40
2009,07,25,14,56,24.30
2009,07,25,14,57,24.40
2009,07,25,14,58,24.30
2009,07,25,14,59,24.40
2009,07,25,15,00,24.50
2009,07,25,15,01,24.70
2009,07,25,15,02,24.90
2009,07,25,15,03,25.00
2009,07,25,15,04,25.00
2009,07,25,15,05,24.90
2009,07,25,15,06,24.90
2009,07,25,15,07,24.90
2009,07,25,15,08,24.90
2009,07,25,15,09,24.90
2009,07,25,15,10,25.00
2009,07,25,15,11,25.00
2009,07,25,15,12,25.10
2009,07,25,15,13,25.10
2009,07,25,15,14,25.10
2009,07,25,15,15,25.10
2009,07,25,15,16,25.00
2009,07,25,15,17,24.90
2009,07,25,15,18,24.90
2009,07,25,15,19,24.90
2009,07,25,15,20,25.00
2009,07,25,15,21,25.00
2009,07,25,15,22,25.10
2009,07,25,15,23,25.20
2009,07,25,15,24,25.20
2009,07,25,15,25,25.20
2009,07,25,15,26,25.30
2009,07,25,15,27,25.30
2009,07,25,15,28,25.40
2009,07,25,15,29,25.40
2009,07,25,15,30,25.50
2009,07,25,15,31,25.40
2009,07,25,15,32,25.40
2009,07,25,15,33,25.30
2009,07,25,15,34,25.20
2009,07,25,15,35,25.20
2009,07,25,15,36,25.20
2009,07,25,15,37,25.20
2009,07,25,15,38,25.10
2009,07,25,15,39,25.10
2009,07,25,15,40,25.00
2009,07,25,15,41,24.90
2009,07,25,15,42,24.90
2009,07,25,15,43,24.90
2009,07,25,15,44,24.90
2009,07,25,15,45,24.80
2009,07,25,15,46,24.60
2009,07,25,15,47,24.50
2009,07,25,15,48,24.30
2009,07,25,15,49,24.30
2009,07,25,15,50,24.30
2009,07,25,15,51,24.30
2009,07,25,15,52,24.40
2009,07,25,15,53,24.50
2009,07,25,15,54,24.60
2009,07,25,15,55,24.80
2009,07,25,15,56,24.90
2009,07,25,15,57,25.00
2009,07,25,15,58,25.10
2009,07,25,15,59,25.10
2009,07,25,16,00,25.20
2009,07,25,16,01,25.10
2009,07,25,16,02,25.00
2009,07,25,16,03,24.90
2009,07,25,16,04,24.80
2009,07,25,16,05,24.80
2009,07,25,16,06,24.80
2009,07,25,16,07,24.80
2009,07,25,16,08,24.80
2009,07,25,16,09,24.80
2009,07,25,16,10,24.80
2009,07,25,16,11,24.80
2009,07,25,16,12,24.80
2009,07,25,16,13,24.80
2009,07,25,16,14,24.80
2009,07,25,16,15,24.80
2009,07,25,16,16,24.60
2009,07,25,16,17,24.50
2009,07,25,16,18,24.40
2009,07,25,16,19,24.40
2009,07,25,16,20,24.40
2009,07,25,16,21,24.40
2009,07,25,16,22,24.40
2009,07,25,16,23,24.50
2009,07,25,16,24,24.60
2009,07,25,16,25,24.60
2009,07,25,16,26,24.60
2009,07,25,16,27,24.70
2009,07,25,16,28,24.80
2009,07,25,16,29,24.90
2009,07,25,16,30,25.00
2009,07,25,16,31,25.10
2009,07,25,16,32,25.20
2009,07,25,16,33,25.20
2009,07,25,16,34,25.20
2009,07,25,16,35,25.20
2009,07,25,16,36,25.10
2009,07,25,16,37,25.00
2009,07,25,16,38,24.90
2009,07,25,16,39,24.80
2009,07,25,16,40,24.80
2009,07,25,16,41,24.60
2009,07,25,16,42,24.60
2009,07,25,16,43,24.50
2009,07,25,16,44,24.40
2009,07,25,16,45,24.30
2009,07,25,16,46,24.20
2009,07,25,16,47,24.20
2009,07,25,16,48,24.10
2009,07,25,16,49,24.00
2009,07,25,16,50,23.90
2009,07,25,16,51,23.80
2009,07,25,16,52,23.70
2009,07,25,16,53,23.70
2009,07,25,16,54,23.70
2009,07,25,16,55,23.60
2009,07,25,16,56,23.60
2009,07,25,16,57,23.70
2009,07,25,16,58,23.70
2009,07,25,16,59,23.80
2009,07,25,17,00,23.80
2009,07,25,17,01,23.90
2009,07,25,17,02,24.00
2009,07,25,17,03,24.00
2009,07,25,17,04,24.20
2009,07,25,17,05,24.30
2009,07,25,17,06,24.40
2009,07,25,17,07,24.40
2009,07,25,17,08,24.40
2009,07,25,17,09,24.50
2009,07,25,17,10,24.60
2009,07,25,17,11,24.80
2009,07,25,17,12,24.90
2009,07,25,17,13,25.00
2009,07,25,17,14,25.10
2009,07,25,17,15,25.10
2009,07,25,17,16,25.10
2009,07,25,17,17,25.20
2009,07,25,17,18,25.30
2009,07,25,17,19,25.40
2009,07,25,17,20,25.40
2009,07,25,17,21,25.40
2009,07,25,17,22,25.40
2009,07,25,17,23,25.30
2009,07,25,17,24,25.40
2009,07,25,17,25,25.50
2009,07,25,17,26,25.60
2009,07,25,17,27,25.70
2009,07,25,17,28,25.80
2009,07,25,17,29,25.90
2009,07,25,17,30,25.90
2009,07,25,17,31,26.00
2009,07,25,17,32,26.00
2009,07,25,17,33,26.00
2009,07,25,17,34,26.10
2009,07,25,17,35,26.10
2009,07,25,17,36,26.10
2009,07,25,17,37,26.20
2009,07,25,17,38,26.20
2009,07,25,17,39,26.20
2009,07,25,17,40,26.30
2009,07,25,17,41,26.30
2009,07,25,17,42,26.40
2009,07,25,17,43,26.40
2009,07,25,17,44,26.40
2009,07,25,17,45,26.40
2009,07,25,17,46,26.40
2009,07,25,17,47,26.40
2009,07,25,17,48,26.40
2009,07,25,17,49,26.30
2009,07,25,17,50,26.20
2009,07,25,17,51,26.20
2009,07,25,17,52,26.20
2009,07,25,17,53,26.00
2009,07,25,17,54,25.90
2009,07,25,17,55,25.80
2009,07,25,17,56,25.70
2009,07,25,17,57,25.70
2009,07,25,17,58,25.60
2009,07,25,17,59,25.50
2009,07,25,18,00,25.40
2009,07,25,18,01,25.40
2009,07,25,18,02,25.30
2009,07,25,18,03,25.30
2009,07,25,18,04,25.20
2009,07,25,18,05,25.10
2009,07,25,18,06,25.00
2009,07,25,18,07,25.00
2009,07,25,18,08,25.00
2009,07,25,18,09,24.90
2009,07,25,18,10,24.90
2009,07,25,18,11,24.90
2009,07,25,18,12,25.00
2009,07,25,18,13,25.00
2009,07,25,18,14,25.00
2009,07,25,18,15,25.00
2009,07,25,18,16,25.00
2009,07,25,18,17,25.00
2009,07,25,18,18,25.00
2009,07,25,18,19,25.00
2009,07,25,18,20,25.00
2009,07,25,18,21,25.10
2009,07,25,18,22,25.10
2009,07,25,18,23,25.10
2009,07,25,18,24,25.10
2009,07,25,18,25,25.10
2009,07,25,18,26,25.00
2009,07,25,18,27,25.00
2009,07,25,18,28,24.80
2009,07,25,18,29,24.80
2009,07,25,18,30,24.70
2009,07,25,18,31,24.60
2009,07,25,18,32,24.50
2009,07,25,18,33,24.50
2009,07,25,18,34,24.40
2009,07,25,18,35,24.30
2009,07,25,18,36,24.10
2009,07,25,18,37,24.10
2009,07,25,18,38,24.00
2009,07,25,18,39,23.90
2009,07,25,18,40,23.70
2009,07,25,18,41,23.70
2009,07,25,18,42,23.60
2009,07,25,18,43,23.60
2009,07,25,18,44,23.60
2009,07,25,18,45,23.60
2009,07,25,18,46,23.60
2009,07,25,18,47,23.60
2009,07,25,18,48,23.60
2009,07,25,18,49,23.60
2009,07,25,18,50,23.60
2009,07,25,18,51,23.60
2009,07,25,22,31,19.10
2009,07,25,22,32,19.00
2009,07,25,22,33,18.90
2009,07,25,22,34,18.90
2009,07,25,22,35,18.80
2009,07,25,22,36,18.70
2009,07,25,22,37,18.70
2009,07,25,22,38,18.70
2009,07,25,22,39,18.70
2009,07,25,22,40,18.70
2009,07,25,22,41,18.70
2009,07,25,22,42,18.70
2009,07,25,22,43,18.70
2009,07,25,22,44,18.70
2009,07,25,22,45,18.70
2009,07,25,22,46,18.50
2009,07,25,22,47,18.30
2009,07,25,22,48,18.30
2009,07,25,22,49,18.30
2009,07,25,22,50,18.30
2009,07,25,22,51,18.20
2009,07,25,22,52,18.20
2009,07,25,22,53,18.20
2009,07,25,22,54,18.20
2009,07,25,22,55,18.20
2009,07,25,22,56,18.20
2009,07,25,22,57,18.20
2009,07,25,22,58,18.20
2009,07,25,22,59,18.20
2009,07,25,23,00,18.20
2009,07,25,23,01,18.20
2009,07,25,23,02,18.20
2009,07,25,23,03,18.20
2009,07,25,23,04,18.20
2009,07,25,23,05,18.10
2009,07,25,23,06,18.10
2009,07,25,23,07,18.10
2009,07,25,23,08,18.10
2009,07,25,23,09,18.10
2009,07,25,23,10,18.10
2009,07,25,23,11,18.10
2009,07,25,23,12,18.10
2009,07,25,23,13,18.10
2009,07,25,23,14,18.10
2009,07,25,23,15,18.10
2009,07,25,23,16,18.00
2009,07,25,23,17,18.00
2009,07,25,23,18,18.00
2009,07,25,23,19,17.90
2009,07,25,23,20,17.90
2009,07,25,23,21,17.90
2009,07,25,23,22,18.00
2009,07,25,23,23,18.00
2009,07,25,23,24,18.00
2009,07,25,23,25,17.90
2009,07,25,23,26,17.90
2009,07,25,23,27,17.90
2009,07,25,23,28,17.90
2009,07,25,23,29,17.90
2009,07,25,23,30,17.90
2009,07,25,23,31,17.90
2009,07,25,23,32,17.90
2009,07,25,23,33,17.90
2009,07,25,23,34,17.90
2009,07,25,23,35,17.90
2009,07,25,23,36,17.90
2009,07,25,23,37,17.90
2009,07,25,23,38,17.90
2009,07,25,23,39,17.90
2009,07,25,23,40,17.90
2009,07,25,23,41,17.90
2009,07,25,23,42,17.90
2009,07,25,23,43,17.90
2009,07,25,23,44,17.90
2009,07,25,23,45,17.80
2009,07,25,23,46,17.80
2009,07,25,23,47,17.80
2009,07,25,23,48,17.80
2009,07,25,23,49,17.80
2009,07,25,23,50,17.80
2009,07,25,23,51,17.80
2009,07,25,23,52,17.80
2009,07,25,23,53,17.80
2009,07,25,23,54,17.70
2009,07,25,23,55,17.70
2009,07,25,23,56,17.70
2009,07,25,23,57,17.70
2009,07,25,23,58,17.70
2009,07,25,23,59,17.70
